Regional Weather Roundup
Issued by NWS State College, PA

Home | Current Version | Previous Version | Text Only | Print | Product List | Glossary On
Versions: 1 2 3 4 5 6 7 8 9 10 11 12 13 14 15 16 17 18 19 20 21 22 23 24 25 26 27 28 29 30 31 32 33 34 35 36 37 38 39 40 41 42 43 44 45 46 47 48 49 50
000
ASUS41 KCTP 052303
RWRCTP

REGIONAL WEATHER ROUNDUP
NATIONAL WEATHER SERVICE STATE COLLEGE PA
600 PM EST MON DEC 05 2016

Note: "fair" indicates few or no clouds below 12,000 feet with no
significant weather and/or obstructions to visibility.

* = STATION THAT DOES NOT REPORT PRECIPITATION /E.G. RAIN...SNOW...ETC/
    THUNDER OR FOG.

PAZ002>004-007>009-013>016-020>023-029>032-060000-
WESTERN PENNSYLVANIA

CITY           SKY/WX    TMP DP  RH WIND       PRES   REMARKS
ERIE           CLOUDY    41  31  67 SW7       30.08R
MEADVILLE      CLOUDY    35  29  78 SW5       30.06R
FRANKLIN*        N/A     36  27  69 W5        30.08R
NEW CASTLE     CLOUDY    36  29  75 CALM      30.10R
BEAVER COUNTY  CLOUDY    37  28  70 CALM      30.09R
BUTLER*        CLOUDY    36  27  69 CALM      30.11S
PITTSBURGH INT CLOUDY    40  29  64 CALM      30.09R
PITTSBURGH     CLOUDY    39  26  59 CALM      30.08R
INDIANA*       CLOUDY    37  30  75 CALM      30.10R
LATROBE        PTCLDY    37  28  70 NW3       30.10R
WASHINGTON CO* PTCLDY    34  27  75 N6        30.08F
$$

PAZ004>006-010>012-017>019-024>028-033>037-041-042-045-046-049>053-060000-
CENTRAL PENNSYLVANIA

CITY           SKY/WX    TMP DP  RH WIND       PRES   REMARKS
BRADFORD       CLOUDY    34  29  82 W6        30.02R
DUBOIS         CLOUDY    35  27  72 W5        30.04R
CLEARFIELD     CLOUDY    37  29  72 W5        30.05R
JOHNSTOWN      CLOUDY    35  28  75 W6        30.05R
ALTOONA        CLOUDY    37  29  72 W7        30.08R
STATE COLLEGE  PTCLDY    37  28  70 W5        30.06R
WILLIAMSPORT   MOCLDY    40  29  64 W5        30.05R
SELINSGROVE    CLEAR     38  31  76 W3        30.06S
FT INDIANTOWN  CLOUDY    43  29  58 VRB3      30.05R
CAPITAL CITY   CLOUDY    43  28  55 W6        30.07R
HARRISBURG     PTCLDY    42  31  64 NW9       30.06R
YORK           CLOUDY    40  31  70 CALM      30.07R
$$

PAZ038>040-043-044-047-048-054-055-060>062-067>071-060000-
EASTERN PENNSYLVANIA

CITY           SKY/WX    TMP DP  RH WIND       PRES   REMARKS
SCRANTON       MOCLDY    40  30  67 W6        30.01S
MOUNT POCONO   PTCLDY    34  29  82 NW6       29.97S
ALLENTOWN      CLEAR     42  29  59 W3        30.03R
QUAKERTOWN*    CLOUDY    36  32  87 CALM      30.04R
READING        CLOUDY    42  30  62 W6        30.04R
LANCASTER      CLOUDY    42  33  70 NW6       30.05R
COATESVILLE    PTCLDY    41  34  75 NW6       30.05R
POTTSTOWN      CLOUDY    40  32  73 CALM      30.05R
BLUE BELL      CLOUDY    36  34  93 CALM      30.03S
DOYLESTOWN     CLEAR     42  35  76 NW3       30.03R
WILLOW GROVE   NOT AVBL
NORTH PHILA    CLOUDY    43  34  70 CALM      30.06R
PHILADELPHIA   CLOUDY    48  33  56 NW6       30.06R
$$




USA.gov is the U.S. government's official web portal to all federal, state and local government web resources and services.